Regional Weather Roundup
Issued by NWS

Home | Current Version | Previous Version | Graphics & Text | Print | Product List | Glossary On
Versions: 1 2 3 4 5 6 7 8 9 10 11 12 13 14 15 16 17 18 19 20 21 22 23 24 25 26 27 28 29 30 31 32 33 34 35 36 37 38 39 40 41 42 43 44 45 46 47 48 49 50
000
ASUS43 KIND 160309
RWRIN

WEATHER ROUNDUP FOR INDIANA
NATIONAL WEATHER SERVICE INDIANAPOLIS IN
1000 PM EST MON JAN 15 2018

NOTE: "FAIR" INDICATES FEW OR NO CLOUDS BELOW 12,000 FEET WITH NO
SIGNIFICANT WEATHER AND/OR OBSTRUCTIONS TO VISIBILITY.

* - STATION DOES NOT REPORT WEATHER SUCH AS PRECIPITATION OR FOG.

+ - STATION NOT QUALITY CONTROLLED BY THE NATIONAL WEATHER SERVICE.
    USE DATA WITH CAUTION...ESPECIALLY DEWPOINT AND RELATIVE
    HUMIDITY OBSERVATIONS.

INZ001>003-010>013-019-020-160400-
NORTHWEST INDIANA

CITY           SKY/WX    TMP DP  RH WIND       PRES   REMARKS
GARY /AIRPORT/ CLOUDY    14   5  67 W16       30.31S WCI  -2
KNOX *+        CLOUDY     9   5  85 SW15      30.34R WCI  -8
LA PORTE +     MOCLDY     9   4  80 SW12      30.32R WCI  -5
MICHIGAN CITY+ FLURRIES  12   5  73 SW12G17   30.32R WCI  -2
MONTICELLO +   CLOUDY     7   0  74 W14G22    30.39R WCI -10
RENSSELAER +   CLOUDY     7   0  72 SW16G24   30.38R WCI -11
VALPARAISO     CLOUDY    10   4  76 SW16      30.33R WCI  -7

$$

LMZ046-743>745-160400-
SOUTHERN LAKE MICHIGAN

STATION/POSITION TIME  TEMP    WIND        PRES    WAVE
                       AIR SEA DIR/SP/G            HT
                 (UTC) (F)     (DEG/KT/KT) (MB)    (FT)
BURNS HARBOR     0240   11     220/ 12/ 17 1027.1R
MICHIGAN CITY    0240          200/ 14/ 16   N/A

$$

INZ004-005-014>016-021>024-160400-
NORTH CENTRAL INDIANA

CITY           SKY/WX    TMP DP  RH WIND       PRES   REMARKS
GOSHEN         CLOUDY    12   5  73 W16       30.31R WCI  -5
LOGANSPORT +   MOCLDY     7   1  78 W15G22    30.38R WCI -11
PERU/GRISSOM   PTCLDY     6   2  84 W18       30.35R WCI -13
ROCHESTER +    FLURRIES  10   5  79 W14G24    30.35R WCI  -5
SOUTH BEND     CLOUDY    11   6  81 SW14      30.31R WCI  -5
WARSAW +       FLURRIES  10   5  79 SW13      30.32R WCI  -5

$$

INZ006>009-017-018-025>027-160400-
NORTHEAST INDIANA

CITY           SKY/WX    TMP DP  RH WIND       PRES   REMARKS
AUBURN +       FLURRIES  14   9  79 SW10      30.31R WCI   1
FORT WAYNE     FAIR       9   4  80 W14       30.33R WCI  -7
HUNTINGTON +   FAIR       8   3  80 W10       30.34R WCI  -7
KENDALLVILLE + LGT SNOW  13  10  87 W13       30.28S WCI  -1

$$

INZ028-029-035-036-043>045-051>053-160400-
WEST CENTRAL INDIANA

CITY           SKY/WX    TMP DP  RH WIND       PRES   REMARKS
CRAWFORDSVL +  MOCLDY     4  -2  76 MISG        N/A
GREENCASTLE +  CLOUDY     9   0  66 W13G21    30.43R WCI  -7
LAFAYETTE      CLOUDY     7   1  76 W15       30.42R WCI -10
TERRE HAUTE    CLOUDY     8  -1  66 NW12      30.48R WCI  -7

$$

INZ030>032-037>040-046>048-054>057-064-065-160400-
CENTRAL INDIANA

CITY           SKY/WX    TMP DP  RH WIND       PRES   REMARKS
COLUMBUS       CLEAR     12   5  73 NW9       30.43R WCI   0
FISHERS *+       N/A      9   7  92 W13G22    30.40R WCI  -7
FRANKFORT +    CLOUDY    10   4  77 W20       30.40R WCI  -8
GREENWOOD *+   FAIR      12   5  74 W9G16     30.41R WCI  -1
INDIANAPOLIS   MOCLDY     8   2  76 W15       30.41R WCI  -9
-EAGLE CREEK   FAIR       8   0  69 W12       30.40R WCI  -7
MARION +       CLOUDY    10   6  84 W13       30.36S WCI  -6
MT COMFORT *+  CLOUDY     9   7  92 W16       30.38S WCI  -9
SHELBYVILLE    FAIR      12   3  67 W14       30.40R WCI  -3
ZIONSVILLE +   CLOUDY     8   2  77 W12G25    30.39R WCI  -7

$$

INZ033-034-041-042-049-050-058-059-160400-
EAST CENTRAL INDIANA

CITY           SKY/WX    TMP DP  RH WIND       PRES   REMARKS
MUNCIE         CLOUDY    11   4  73 W13       30.35R WCI  -4
RICHMOND +     CLOUDY    18  16  93 W16       30.34R WCI   3

$$

INZ060-061-067>069-081>083-085>088-160400-
SOUTHWEST INDIANA

CITY           SKY/WX    TMP DP  RH WIND       PRES   REMARKS
EVANSVILLE     CLOUDY    17   8  67 NW3       30.50R
HUNTINGBURG +  CLOUDY    16   9  74 NW6       30.49R WCI   7
WASHINGTON +   FAIR      14   5  66 NW10      30.49R WCI   1

$$

INZ062-063-066-070>080-084-089>092-160400-
SOUTH CENTRAL AND SOUTHEAST INDIANA

CITY           SKY/WX    TMP DP  RH WIND       PRES   REMARKS
BATESVILLE *+    N/A    N/A N/A N/A MISG        N/A
BEDFORD +      CLOUDY    14   7  73 W3        30.43R
BLOOMINGTON    FAIR      12   4  70 W12       30.42R WCI  -2
MADISON *+     CLOUDY    19  12  73 W9        30.42R WCI   9
NORTH VERNON + CLOUDY    14   7  73 NW9       30.42R WCI   2

$$





USA.gov is the U.S. government's official web portal to all federal, state and local government web resources and services.